Regional Weather Roundup
Issued by NWS

Home | Current Version | Previous Version | Graphics & Text | Print | Product List | Glossary On
Versions: 1 2 3 4 5 6 7 8 9 10 11 12 13 14 15 16 17 18 19 20 21 22 23 24 25 26 27 28 29 30 31 32 33 34 35 36 37 38 39 40 41 42 43 44 45 46 47 48 49 50
000
ASUS43 KFSD 280602
RWRSD

WEATHER ROUNDUP FOR SOUTH DAKOTA
NATIONAL WEATHER SERVICE SIOUX FALLS SD
100 AM CDT TUE MAR 28 2017

NOTE: "FAIR" INDICATES FEW OR NO CLOUDS BELOW 12,000 FEET WITH NO
SIGNIFICANT WEATHER AND/OR OBSTRUCTIONS TO VISIBILITY.


SDZ001>005-009-010-012>017-280700-
NORTHWEST AND NORTH CENTRAL SOUTH DAKOTA

CITY           SKY/WX    TMP DP  RH WIND       PRES   REMARKS
BUFFALO          N/A     43  35  73 SE3       29.90R
FAITH            N/A     44  35  70 MISG      29.97S
MOBRIDGE       CLEAR     39  31  72 E3        29.99R
$$

SDZ012>016-024>037-041>051-057-063-072>074-280700-
SOUTHWEST AND SOUTH CENTRAL SOUTH DAKOTA

CITY           SKY/WX    TMP DP  RH WIND       PRES   REMARKS
RAPID CTY ARPT PTCLDY    39  32  76 N5        29.94S
PIERRE         CLEAR     39  32  76 E8        29.98R
CUSTER         CLOUDY    38  31  76 NE5       29.96R
ELLSWORTH AFB  CLOUDY    44  34  67 CALM      29.94S
PHILIP         PTCLDY    41  32  70 E8        29.94S
PINE RIDGE     CLOUDY    44  38  79 E8        29.90R
SPEARFISH      FAIR      37  34  87 E9        29.94S
WINNER         CLOUDY    49  39  68 SE10      29.97R
$$

SDZ004>011-016>023-039-040-280700-
NORTHEAST SOUTH DAKOTA

CITY           SKY/WX    TMP DP  RH WIND       PRES   REMARKS
ABERDEEN       CLOUDY    37  32  82 E5        30.04R
WATERTOWN      CLOUDY    44  37  76 CALM      30.03R
BROOKINGS      CLOUDY    42  36  79 SE3       30.03R
SISSETON         N/A     33  30  88 NW7       30.04R WCI  27
$$

SDZ017-020-022-023-036>040-048>070-280700-
SOUTHEAST SOUTH DAKOTA

CITY           SKY/WX    TMP DP  RH WIND       PRES   REMARKS
SIOUX FALLS    CLEAR     41  37  86 S5        30.04R
HURON          CLEAR     41  36  82 SE9       30.02R
CHAMBERLAIN    CLOUDY    45  38  78 E6        30.00R
MITCHELL       MOCLDY    40  37  89 SE6       30.03R
YANKTON        PTCLDY    43  37  81 E5        30.03R
$$

ABBREVIATIONS USED IN REMARKS
   TC - TEMPERATURE IN CELSIUS
  WCI - WIND CHILL INDEX
   HX - HEAT INDEX
  VSB - VISIBILITY





USA.gov is the U.S. government's official web portal to all federal, state and local government web resources and services.